DW5977 Weather Reports


Display with metric or nautical units.
time (UTC)temp
F
wind
direction
speed
MPH
gust
MPH
rain 1hr
in
rain 24hr
in
rain mn
in
humidity
%
barometer
mb
20260502170503 43 245 5.0 11.0 0.00 0.01 0.00 54 1014.7
20260502164024 44 221 5.0 13.0 0.00 0.01 0.00 53 1014.6
20260502163503 44 231 6.0 14.0 0.00 0.01 0.00 53 1014.5
20260502163003 45 243 6.0 14.0 0.00 0.01 0.00 54 1014.6
20260502162503 44 235 5.0 13.0 0.00 0.02 0.00 51 1014.5
20260502162003 44 234 5.0 13.0 0.00 0.02 0.00 52 1014.6
20260502161503 44 240 6.0 13.0 0.00 0.02 0.00 52 1014.6
20260502161003 44 237 5.0 13.0 0.00 0.02 0.00 52 1014.7
20260502160503 45 248 5.0 13.0 0.00 0.02 0.00 52 1014.6
20260502151503 44 234 5.0 14.0 0.00 0.03 0.00 57 1014.6
20260502151003 43 242 5.0 14.0 0.00 0.03 0.00 55 1014.7
20260502150503 44 250 5.0 16.0 0.00 0.03 0.00 57 1014.7
20260502130503 40 259 4.0 12.0 0.00 0.03 0.00 64 1015.4
20260502123503 39 264 4.0 10.0 0.00 0.03 0.00 65 1015.3
20260502123003 39 243 3.0 9.0 0.00 0.03 0.00 68 1015.3
20260502122503 38 229 3.0 9.0 0.00 0.03 0.00 69 1015.3
20260502122024 38 227 3.0 9.0 0.00 0.03 0.00 71 1015.4
20260502121524 38 225 2.0 5.0 0.00 0.03 0.00 74 1015.4
20260502121003 38 221 3.0 5.0 0.00 0.03 0.00 74 1015.3
20260502120503 37 230 3.0 5.0 0.00 0.03 0.00 74 1015.2
20260502115503 37 214 2.0 7.0 0.00 0.03 0.00 76 1015.3
20260502115024 36 206 2.0 5.0 0.00 0.03 0.00 78 1015.4
20260502114503 36 191 2.0 5.0 0.00 0.03 0.00 78 1015.4
20260502114003 36 186 2.0 5.0 0.00 0.03 0.00 80 1015.4
20260502113524 36 183 1.0 5.0 0.00 0.03 0.00 81 1015.3
20260502113024 35 179 1.0 4.0 0.00 0.03 0.00 82 1015.3
20260502112503 35 177 2.0 5.0 0.00 0.03 0.00 83 1015.3
20260502112024 34 178 1.0 5.0 0.00 0.03 0.00 85 1015.5
20260502111524 34 180 2.0 4.0 0.00 0.03 0.00 86 1015.5
20260502111003 33 183 1.0 4.0 0.00 0.03 0.00 87 1015.4
20260502110503 33 191 1.0 2.0 0.00 0.03 0.00 87 1015.4
20260502110003 32 194 1.0 2.0 0.00 0.03 0.00 87 1015.4
20260502105524 32 197 1.0 3.0 0.00 0.03 0.00 88 1015.3
20260502105003 32 202 1.0 3.0 0.00 0.03 0.00 88 1015.3
20260502104503 31 221 1.0 3.0 0.00 0.03 0.00 88 1015.2
20260502104024 31 239 1.0 2.0 0.00 0.03 0.00 88 1015.2
20260502103503 30 252 1.0 2.0 0.00 0.03 0.00 88 1015.1
20260502103003 30 252 0.0 2.0 0.00 0.03 0.00 88 1015.1
20260502102503 30 252 0.0 2.0 0.00 0.03 0.00 88 1015.1
20260502102024 30 252 0.0 2.0 0.00 0.03 0.00 87 1015.1
20260502101503 30 252 0.0 2.0 0.00 0.03 0.00 87 1015.0
20260502101003 29 252 0.0 2.0 0.00 0.03 0.00 87 1014.9
20260502100503 29 0 0.0 0.0 0.00 0.03 0.00 87 1014.8
20260502091503 31 252 0.0 2.0 0.00 0.03 0.00 85 1014.4
20260502091024 31 252 0.0 2.0 0.00 0.03 0.00 85 1014.5
20260502090503 31 252 0.0 2.0 0.00 0.03 0.00 84 1014.5
20260502071503 34 252 0.0 2.0 0.00 0.03 0.00 79 1013.8
20260502071003 34 252 0.0 2.0 0.00 0.03 0.00 79 1013.8
20260502070503 34 252 0.0 2.0 0.00 0.03 0.00 78 1013.9
20260502070003 34 252 0.0 2.0 0.00 0.03 0.00 78 1014.0
20260502065503 35 252 0.0 2.0 0.00 0.03 0.00 78 1014.0
20260502065003 35 252 0.0 2.0 0.00 0.03 0.00 78 1014.1
20260502064503 35 252 1.0 3.0 0.00 0.03 0.00 77 1014.0
20260502064003 35 253 1.0 3.0 0.00 0.03 0.00 77 1014.0
20260502063524 35 253 0.0 2.0 0.00 0.03 0.00 77 1013.9
20260502063024 36 253 0.0 2.0 0.00 0.03 0.00 76 1014.0
20260502062503 36 253 0.0 3.0 0.00 0.03 0.00 76 1014.1
20260502062024 36 253 1.0 3.0 0.00 0.03 0.00 76 1014.2
20260502061524 36 254 1.0 3.0 0.00 0.03 0.00 75 1014.3
20260502061003 36 254 1.0 3.0 0.00 0.03 0.00 75 1014.2
20260502060524 36 255 1.0 3.0 0.00 0.03 0.00 75 1014.2
20260502060003 37 257 1.0 4.0 0.00 0.03 0.00 74 1014.2
20260502055503 37 258 2.0 4.0 0.00 0.03 0.00 74 1014.2
20260502055024 37 261 1.0 4.0 0.00 0.03 0.00 73 1014.3
20260502054503 37 261 1.0 4.0 0.00 0.03 0.00 73 1014.3
20260502054003 37 260 1.0 3.0 0.00 0.03 0.00 72 1014.3
20260502053503 38 259 1.0 4.0 0.00 0.03 0.00 72 1014.2
20260502053003 38 257 2.0 7.0 0.00 0.03 0.00 71 1014.2
20260502052503 38 253 3.0 7.0 0.00 0.03 0.00 71 1014.1
20260502052003 38 255 2.0 7.0 0.00 0.03 0.00 70 1014.2
20260502051503 38 262 3.0 7.0 0.00 0.03 0.00 70 1014.1
20260502051003 39 267 3.0 9.0 0.00 0.03 0.00 69 1014.1
20260502050503 39 274 4.0 9.0 0.00 0.03 0.00 69 1014.2
20260502050003 39 276 4.0 9.0 0.00 0.03 0.00 69 1014.1
20260502045503 39 273 4.0 10.0 0.00 0.03 0.00 69 1014.1
20260502045003 40 267 3.0 10.0 0.00 0.03 0.00 70 1013.9
20260502044504 40 260 2.0 4.0 0.00 0.03 0.00 72 1013.8
20260502044003 40 255 2.0 7.0 0.00 0.03 0.00 72 1013.7
20260502043524 40 257 2.0 7.0 0.00 0.03 0.00 73 1013.7
20260502043024 40 258 2.0 7.0 0.00 0.03 0.00 76 1013.5
20260502042503 40 247 2.0 7.0 0.00 0.03 0.00 78 1013.5
20260502042024 40 233 2.0 5.0 0.00 0.03 0.00 79 1013.4
20260502041503 41 248 2.0 5.0 0.00 0.03 0.00 80 1013.4
20260502041003 41 245 1.0 5.0 0.00 0.03 0.00 80 1013.4
20260502040524 41 209 1.0 4.0 0.00 0.03 0.00 81 1013.4
20260502040004 41 196 1.0 3.0 0.00 0.03 0.00 81 1013.4
20260502035503 42 204 2.0 4.0 0.00 0.03 0.03 81 1013.5
20260502035003 42 217 2.0 5.0 0.00 0.03 0.03 81 1013.4
20260502034524 42 222 2.0 5.0 0.00 0.03 0.03 81 1013.5
20260502034003 42 217 2.0 5.0 0.00 0.03 0.03 80 1013.5
20260502033503 42 242 2.0 8.0 0.00 0.03 0.03 80 1013.5
20260502033024 42 257 2.0 8.0 0.00 0.03 0.03 80 1013.5
20260502032503 41 252 2.0 6.0 0.00 0.03 0.03 80 1013.5
20260502032003 41 228 2.0 7.0 0.00 0.03 0.03 80 1013.4
20260502031503 41 211 3.0 7.0 0.00 0.03 0.03 79 1013.4
20260502031003 41 211 2.0 7.0 0.00 0.03 0.03 79 1013.5
20260502030503 41 212 2.0 7.0 0.00 0.03 0.03 78 1013.5
20260502030003 41 223 3.0 7.0 0.00 0.03 0.03 78 1013.5
20260502025503 41 216 4.0 11.0 0.00 0.03 0.03 78 1013.5
20260502025003 41 219 4.0 11.0 0.00 0.03 0.03 78 1013.5
20260502024503 41 226 3.0 9.0 0.00 0.03 0.03 78 1013.5
20260502024024 41 228 4.0 9.0 0.00 0.03 0.03 78 1013.7
20260502023524 41 235 4.0 10.0 0.00 0.03 0.03 78 1013.6
20260502023003 41 221 4.0 10.0 0.00 0.03 0.03 78 1013.6
20260502022503 41 219 3.0 9.0 0.00 0.03 0.03 79 1013.6
20260502022003 41 219 3.0 9.0 0.00 0.03 0.03 80 1013.5
20260502021503 41 210 3.0 8.0 0.00 0.03 0.03 80 1013.5
20260502021003 41 214 3.0 10.0 0.00 0.03 0.03 81 1013.4
20260502020503 41 211 2.0 10.0 0.00 0.03 0.03 81 1013.4
20260502020003 41 213 2.0 7.0 0.00 0.03 0.03 81 1013.4
20260502015503 41 220 2.0 7.0 0.00 0.03 0.03 80 1013.3
20260502015003 41 219 3.0 9.0 0.00 0.03 0.03 80 1013.4
20260502014503 41 213 3.0 9.0 0.00 0.03 0.03 81 1013.4
20260502014003 41 212 2.0 5.0 0.00 0.03 0.03 81 1013.3
20260502013503 41 217 3.0 7.0 0.00 0.03 0.03 81 1013.4
20260502013003 41 228 3.0 8.0 0.00 0.03 0.03 81 1013.4
20260502012503 41 240 4.0 10.0 0.00 0.03 0.03 81 1013.1
20260502012003 41 229 4.0 10.0 0.00 0.03 0.03 81 1013.0
20260502011503 42 214 3.0 8.0 0.00 0.03 0.03 82 1013.0
20260502011003 42 229 3.0 9.0 0.00 0.03 0.03 82 1013.0
20260502010503 42 232 4.0 10.0 0.00 0.03 0.03 82 1013.0
20260502010003 42 232 4.0 10.0 0.00 0.03 0.03 82 1013.0
20260502005503 42 237 3.0 10.0 0.00 0.03 0.03 81 1012.8
20260502005024 42 235 3.0 10.0 0.00 0.03 0.03 81 1012.8
20260502004524 42 242 4.0 10.0 0.00 0.03 0.03 81 1012.7
20260502004003 42 236 4.0 10.0 0.00 0.03 0.03 80 1012.6
20260502003503 42 239 4.0 10.0 0.00 0.03 0.03 80 1012.5
20260502003003 43 250 3.0 10.0 0.00 0.03 0.03 81 1012.4
20260502002503 43 236 3.0 9.0 0.00 0.03 0.03 80 1012.3
20260502002003 43 240 3.0 9.0 0.00 0.03 0.03 80 1012.1
20260502001524 44 256 4.0 9.0 0.00 0.03 0.03 79 1012.2
20260502001003 44 255 4.0 8.0 0.00 0.03 0.03 78 1012.1
20260502000503 44 251 4.0 9.0 0.00 0.03 0.03 77 1012.0
20260502000003 44 243 3.0 9.0 0.00 0.03 0.03 76 1011.9
20260501235503 44 241 2.0 8.0 0.00 0.03 0.03 76 1011.8
20260501235024 45 261 3.0 8.0 0.00 0.03 0.03 75 1011.8
20260501234524 45 259 4.0 10.0 0.00 0.03 0.03 75 1011.8
20260501234003 45 245 3.0 10.0 0.00 0.03 0.03 74 1011.7
20260501233503 45 237 2.0 7.0 0.00 0.03 0.03 74 1011.7
20260501233003 45 234 2.0 8.0 0.00 0.03 0.03 74 1011.7
20260501232503 46 216 2.0 8.0 0.00 0.03 0.03 73 1011.6
20260501232003 46 199 2.0 5.0 0.00 0.03 0.03 73 1011.6
20260501231503 46 194 1.0 3.0 0.00 0.03 0.03 75 1011.5
20260501231003 46 194 0.0 2.0 0.00 0.03 0.03 75 1011.5
20260501230503 46 194 1.0 3.0 0.00 0.03 0.03 76 1011.5
20260501230024 46 199 2.0 6.0 0.00 0.03 0.03 75 1011.4
20260501225503 46 202 2.0 6.0 0.00 0.03 0.03 75 1011.4
20260501225003 46 201 1.0 4.0 0.00 0.03 0.03 75 1011.5
20260501224503 46 202 2.0 4.0 0.00 0.03 0.03 74 1011.5
20260501224003 46 224 1.0 4.0 0.00 0.03 0.03 73 1011.5
20260501223503 46 249 1.0 4.0 0.00 0.03 0.03 73 1011.5
20260501223024 46 236 2.0 7.0 0.00 0.03 0.03 73 1011.4
20260501222503 46 181 2.0 7.0 0.00 0.03 0.03 74 1011.4
20260501222003 46 155 2.0 5.0 0.00 0.03 0.03 74 1011.4
20260501221503 46 173 2.0 5.0 0.00 0.03 0.03 74 1011.3
20260501221003 46 190 2.0 5.0 0.00 0.03 0.03 74 1011.4
20260501220524 46 172 2.0 6.0 0.00 0.03 0.03 74 1011.4
20260501220003 46 170 3.0 6.0 0.00 0.03 0.03 76 1011.4
20260501215503 46 174 2.0 6.0 0.00 0.03 0.03 77 1011.3
20260501215003 46 172 2.0 6.0 0.00 0.03 0.03 78 1011.4
20260501214503 45 164 3.0 8.0 0.00 0.03 0.03 79 1011.3
20260501214003 45 157 3.0 8.0 0.00 0.03 0.03 79 1011.3
20260501213503 45 156 2.0 6.0 0.00 0.03 0.03 79 1011.3
20260501213003 45 153 2.0 6.0 0.00 0.03 0.03 79 1011.4
20260501212503 44 149 3.0 7.0 0.00 0.03 0.03 80 1011.4
20260501212003 44 157 2.0 7.0 0.00 0.03 0.03 80 1011.4
20260501211524 44 169 2.0 6.0 0.00 0.03 0.03 80 1011.4
20260501211003 44 169 2.0 6.0 0.00 0.03 0.03 80 1011.4
20260501210503 44 169 2.0 6.0 0.00 0.03 0.03 81 1011.4
20260501210024 44 174 1.0 5.0 0.00 0.03 0.03 80 1011.4
20260501205503 44 182 1.0 4.0 0.00 0.03 0.03 81 1011.5
20260501205003 43 198 1.0 4.0 0.00 0.03 0.03 81 1011.5
20260501204503 43 208 1.0 4.0 0.00 0.03 0.03 81 1011.6
20260501204024 43 242 1.0 2.0 0.00 0.03 0.03 82 1011.5
20260501203503 43 250 1.0 3.0 0.00 0.03 0.03 82 1011.6
20260501203003 43 261 1.0 3.0 0.00 0.03 0.03 83 1011.6
20260501202503 43 265 0.0 3.0 0.00 0.03 0.03 83 1011.5
20260501202003 42 265 1.0 3.0 0.00 0.03 0.03 84 1011.5
20260501201503 42 265 1.0 3.0 0.00 0.03 0.03 83 1011.6
20260501201003 42 265 1.0 3.0 0.00 0.03 0.03 84 1011.5
20260501200503 42 265 1.0 3.0 0.00 0.03 0.03 84 1011.6
20260501200003 42 265 1.0 4.0 0.01 0.03 0.03 84 1011.6
20260501195503 42 265 1.0 4.0 0.01 0.03 0.03 84 1011.6
20260501195003 42 265 1.0 4.0 0.01 0.03 0.03 84 1011.8
20260501194503 42 264 2.0 4.0 0.01 0.03 0.03 84 1011.8
20260501194003 42 264 2.0 3.0 0.01 0.03 0.03 84 1011.8
20260501193503 42 263 1.0 6.0 0.01 0.03 0.03 83 1011.9
20260501193003 42 262 2.0 6.0 0.01 0.03 0.03 83 1011.8
20260501192503 42 259 2.0 4.0 0.01 0.03 0.03 82 1011.8
20260501192003 42 254 1.0 4.0 0.01 0.03 0.03 82 1011.9
20260501191503 42 253 1.0 4.0 0.01 0.03 0.03 81 1011.7
20260501191003 42 252 1.0 4.0 0.01 0.03 0.03 81 1011.9
20260501190503 42 252 1.0 4.0 0.01 0.03 0.03 82 1011.9
20260501190003 42 252 1.0 3.0 0.00 0.02 0.02 82 1011.9
20260501185503 42 252 1.0 3.0 0.00 0.02 0.02 82 1012.1
20260501185024 42 253 1.0 3.0 0.00 0.02 0.02 82 1012.1
20260501184504 42 252 1.0 4.0 0.00 0.02 0.02 83 1012.2
20260501184003 42 251 1.0 4.0 0.00 0.02 0.02 83 1012.3
20260501183524 42 252 1.0 4.0 0.00 0.02 0.02 82 1012.3
20260501183003 42 258 1.0 4.0 0.00 0.02 0.02 82 1012.4
20260501182503 42 262 2.0 4.0 0.00 0.02 0.02 83 1012.4
20260501182003 42 261 2.0 6.0 0.00 0.02 0.02 82 1012.3
20260501181503 42 260 1.0 6.0 0.00 0.02 0.02 82 1012.2
20260501181003 42 260 1.0 3.0 0.00 0.02 0.02 82 1012.2
20260501180503 42 260 1.0 3.0 0.00 0.02 0.02 82 1012.2
20260501180024 42 260 1.0 3.0 0.00 0.02 0.02 83 1012.3
20260501175524 42 260 1.0 4.0 0.00 0.02 0.02 82 1012.2
20260501175024 41 263 1.0 4.0 0.00 0.02 0.02 82 1012.2
20260501174503 41 265 1.0 3.0 0.00 0.02 0.02 83 1012.3
20260501174003 41 268 1.0 4.0 0.00 0.02 0.02 83 1012.2
20260501173503 41 272 1.0 4.0 0.00 0.02 0.02 83 1012.2
20260501172503 41 296 1.0 4.0 0.01 0.02 0.02 83 1012.4
20260501172024 41 296 1.0 4.0 0.01 0.02 0.02 83 1012.4